HST 1 20580U 90037B 25346.98803157 .00010337 00000+0 35884-3 0 9999 2 20580 28.4685 270.7996 0001784 242.3546 117.6868 15.28057436760030 POLAR 1 23802U 96013A 25340.48239671 .00000144 00000+0 00000+0 0 9995 2 23802 79.6240 229.2201 6278774 215.5988 78.9527 1.29846135142354 SWAS 1 25560U 98071A 25346.99632494 .00006073 00000+0 40064-3 0 9991 2 25560 69.8974 347.1176 0006580 214.7198 145.3537 15.07954707469184 CXO 1 25867U 99040B 25349.26321703 .00000427 00000+0 00000+0 0 9998 2 25867 53.0917 122.4070 8132318 310.8570 0.2053 0.37806491 16624 XMM-NEWTON 1 25989U 99066A 25346.86654705 -.00000025 00000+0 00000+0 0 9990 2 25989 65.4300 285.4453 4742142 68.1806 0.1932 0.50134189 22074 TERRA 1 25994U 99068A 25347.01860108 .00000785 00000+0 16957-3 0 9996 2 25994 97.9750 38.6929 0003604 93.9258 22.4022 14.60902488382427 CLUSTER II-FM7 (SAMBA) 1 26410U 00041A 25345.66933458 .00002368 00000+0 00000+0 0 9998 2 26410 147.5981 25.0516 8757920 240.7596 359.8579 0.44796275 19471 CLUSTER II-FM8 (TANGO) 1 26464U 00045B 25348.77015114 .00003110 00000+0 00000+0 0 9992 2 26464 147.9375 25.9770 8766037 241.5722 359.9285 0.44419793 19473 ODIN 1 26702U 01007A 25347.03064513 .00041567 00000+0 70631-3 0 9990 2 26702 97.4228 14.9643 0005065 107.2707 252.9100 15.51330168360379 TIMED 1 26998U 01055B 25346.91185073 .00002775 00000+0 25922-3 0 9992 2 26998 74.0690 249.9240 0001070 217.9175 142.1934 14.94692132302989 CORIOLIS 1 27640U 03001A 25347.02456859 .00000220 00000+0 12393-3 0 9997 2 27640 98.7142 351.7541 0014554 32.9159 327.2921 14.19872283187801 SORCE 1 27651U 03004A 25346.97041618 .00005875 00000+0 44688-3 0 9991 2 27651 39.9901 243.0896 0015971 157.3041 202.8461 15.02287691243878 MOST 1 27843U 03031D 25347.00894482 .00000165 00000+0 95820-4 0 9996 2 27843 98.7068 352.3268 0010894 72.1779 288.0586 14.21270335164262 SCISAT 1 1 27858U 03036A 25346.96141187 .00001123 00000+0 14914-3 0 9997 2 27858 73.9286 181.2712 0008535 284.7490 75.2740 14.81119605203875 SWIFT 1 28485U 04047A 25346.80330795 .00046758 00000+0 76987-3 0 9996 2 28485 20.5525 164.0287 0003331 276.2249 83.7814 15.50556427157721 HINODE (SOLAR-B) 1 29479U 06041A 25347.03039780 .00001163 00000+0 20951-3 0 9993 2 29479 98.0651 0.8696 0018093 154.9233 205.2855 14.68303206 27558 SHIJIAN-6 02A (SJ-6 02A) 1 29505U 06046A 25347.05576909 .00011097 00000+0 60933-3 0 9990 2 29505 97.6624 21.7993 0004620 70.6465 289.5265 15.14295213 44073 SHIJIAN-6 02B (SJ-6 02B) 1 29506U 06046B 25347.02131434 .00003011 00000+0 24308-3 0 9991 2 29506 97.6888 12.6044 0014031 336.9845 23.0748 15.00534780 42816 FGRST (GLAST) 1 33053U 08029A 25346.86811744 .00005845 00000+0 23029-3 0 9992 2 33053 25.5831 56.9782 0007871 290.8744 69.0951 15.22597649967398 SDO 1 36395U 10005A 25346.41938646 -.00000068 00000+0 00000+0 0 9996 2 36395 34.2613 89.1905 0001090 138.7157 262.4732 1.00270120 58193 CRYOSAT 2 1 36508U 10013A 25346.99752518 .00000261 00000+0 64019-4 0 9995 2 36508 92.0260 232.2325 0002332 94.7686 265.3788 14.51903055831062 X-SAT 1 37389U 11015C 25347.03625093 .00000288 00000+0 13997-3 0 9996 2 37389 98.3312 328.1610 0014176 164.9435 195.2170 14.25129523761160 GCOM-W1 (SHIZUKU) 1 38337U 12025A 25346.79940932 .00001146 00000+0 26434-3 0 9990 2 38337 98.2215 285.0061 0001416 68.8777 344.5409 14.57125895721893 NUSTAR 1 38358U 12031A 25347.00009259 .00012641 00000+0 77567-3 0 9998 2 38358 6.0276 348.4011 0009081 227.6570 275.8225 15.06410765 1308 NEOSSAT 1 39089U 13009D 25347.00187103 .00000367 00000+0 14162-3 0 9995 2 39089 98.4074 166.5249 0012127 82.4593 277.7970 14.35730841670020 BRITE-AUSTRIA 1 39091U 13009F 25346.95316201 .00000384 00000+0 14554-3 0 9998 2 39091 98.3887 166.0681 0011332 77.7381 282.5074 14.36436124670317 IRIS 1 39197U 13033A 25346.93533026 .00002928 00000+0 34573-3 0 9995 2 39197 97.9395 181.7216 0023951 205.6977 154.3049 14.85282153672724 HISAKI (SPRINT-A) 1 39253U 13049A 25346.94286147 .00000146 00000+0 10852-3 0 9999 2 39253 29.7205 86.8679 0136971 306.9959 51.8146 13.55521437606138 CASSIOPE 1 39265U 13055A 25346.96856833 .00056994 43623-7 75821-3 0 9991 2 39265 80.9218 290.6364 0341622 324.5156 33.3760 15.11498766639401 STSAT-3 1 39422U 13066G 25346.99224762 .00006499 00000+0 50739-3 0 9991 2 39422 97.6005 315.3578 0013943 313.5192 46.4873 15.01386968656258 SWARM B 1 39451U 13067A 25346.92640830 .00005481 00000+0 20559-3 0 9992 2 39451 87.7446 38.8020 0003254 85.3425 274.8195 15.27019752654800 SWARM A 1 39452U 13067B 25346.94875492 .00016402 00000+0 32996-3 0 9992 2 39452 87.3359 125.1864 0002228 89.0509 271.1005 15.46485882677425 SWARM C 1 39453U 13067C 25346.94866129 .00016202 00000+0 32594-3 0 9992 2 39453 87.3357 123.7715 0002242 89.6503 270.5013 15.46483804677388 BRITE-CA1 (TORONTO) 1 40020U 14033L 25346.84412807 .00002399 00000+0 36964-3 0 9994 2 40020 97.9488 114.5751 0079864 152.7286 207.8150 14.72211861614795 OCO 2 1 40059U 14035A 25346.99169710 .00000780 00000+0 18344-3 0 9990 2 40059 98.2217 285.9415 0001211 96.4681 263.6655 14.57047452608930 BRITE-PL2 (HEWELIUSZ) 1 40119U 14049B 25346.80078175 .00003389 00000+0 32560-3 0 9990 2 40119 97.8994 92.6656 0014557 13.5711 346.5897 14.93659581613617 MMS 1 1 40482U 15011A 25347.00009259 -.00000200 00000+0 00000+0 0 9993 2 40482 69.2152 351.5578 8502340 163.4043 27.9274 0.28292554 1382 MMS 2 1 40483U 15011B 25347.00009259 -.00000200 00000+0 00000+0 0 9994 2 40483 69.2119 351.5489 8503634 163.4190 27.9002 0.28296045 1385 MMS 3 1 40484U 15011C 25347.00009259 -.00000200 00000+0 00000+0 0 9995 2 40484 69.2172 351.5649 8503747 163.4167 27.8897 0.28292438 1385 MMS 4 1 40485U 15011D 25347.00009259 -.00000200 00000+0 00000+0 0 9996 2 40485 69.2166 351.5574 8505055 163.4035 27.9271 0.28292576 1373 ASTROSAT 1 40930U 15052A 25346.11125612 .00002723 00000+0 25247-3 0 9994 2 40930 5.9975 61.4659 0008561 245.7676 114.1557 14.82014294552024 DAMPE 1 41173U 15078A 25346.96571562 .00003086 00000+0 10819-3 0 9996 2 41173 97.4552 346.6172 0012941 24.6165 335.5691 15.30158659556067 PISAT 1 41784U 16059B 25346.95775241 .00001830 00000+0 32167-3 0 9998 2 41784 97.8160 350.5089 0030703 80.9058 279.5620 14.68496049492401 HXMT (HUIYAN) 1 42758U 17034A 25346.92259315 .00006833 00000+0 35450-3 0 9996 2 42758 43.0129 138.6134 0031465 44.5670 315.7700 15.16246317469365 FLYING LAPTOP 1 42831U 17042G 25347.00218980 .00005555 00000+0 45109-3 0 9992 2 42831 97.4235 145.6103 0014984 48.2761 311.9742 14.99913903458534 ZHANGHENG 1-01 (CSES-1) 1 43194U 18015C 25347.00294457 .00015089 00000+0 68166-3 0 9990 2 43194 97.6653 144.1835 0018004 204.8944 155.1424 15.20914804436345 SALSAT 1 46495U 20068K 25346.92502343 .00012633 00000+0 48868-3 0 9993 2 46495 97.8788 334.2073 0008929 228.5095 131.5376 15.26328110286919 IXPE 1 49954U 21121A 25347.00009259 .00015076 00000+0 89275-3 0 9996 2 49954 0.2296 283.6847 0007558 144.0112 254.6588 15.07984512 5834